Weather History for Sand Point, AK

Change the Weather History Date:

Tuesday, September 17, 2013

  Actual Average Record
Temperature  
Mean Temperature 50 °F -  
Max Temperature 53 °F 50 °F 57 °F (2000)
Min Temperature 46 °F 43 °F 34 °F (1982)
Degree Days  
Heating Degree Days 16    
Moisture  
Dew Point 44 °F    
Average Humidity 80    
Maximum Humidity 93    
Minimum Humidity 62    
Precipitation  
Precipitation 0.00 in - - ()
Sea Level Pressure  
Sea Level Pressure 29.80 in    
Wind  
Wind Speed 11 mph (NW)    
Max Wind Speed 24 mph    
Max Gust Speed 28 mph    
Visibility 10 miles    
Events      
Averages and records for this station are not official NWS values.
T = Trace of Precipitation, MM = Missing Value Source: NWS Daily Summary

Daily Weather History Graph

Daily Weather History Graph

Search for Another Location

Airport:

Trip Planner

Search our weather history database for the weather conditions in past years. The results will help you decide how hot, cold, wet, or windy it might be!

Date:

Astronomy

Sep. 17, 2013 Rise Set
Actual Time 8:18 AM AKDT 8:52 PM AKDT
Civil Twilight 7:42 AM AKDT 9:29 PM AKDT
Nautical Twilight 6:57 AM AKDT 10:13 PM AKDT
Astronomical Twilight 6:10 AM AKDT 11:00 PM AKDT
Moon 7:52 PM AKDT (9/17) 6:14 AM AKDT (9/17)
Length of Visible Light 13h 47m
Length of Day
12h 33m
Waxing Gibbous, 96% of the Moon is Illuminated
Sep 17
Waxing Gibbous
Sep 19
Full
Sep 26
Last Quarter
Oct 4
New
Oct 11
First Quarter

Hourly Weather History & Observations

Time (AKDT) Temp. Windchill Dew Point Humidity Pressure Visibility Wind Dir Wind Speed Gust Speed Precip Events Conditions
12:16 AM 48.2 °F - 46.4 °F 93% 29.93 in 10.0 mi West 11.5 mph - N/A   Mostly Cloudy
12:36 AM 48.2 °F - 44.6 °F 87% 29.92 in 10.0 mi West 9.2 mph - N/A   Overcast
12:56 AM 48.2 °F - 44.6 °F 87% 29.92 in 10.0 mi NW 5.8 mph - N/A   Overcast
1:16 AM 48.2 °F - 44.6 °F 87% 29.91 in 10.0 mi WNW 10.4 mph - N/A   Scattered Clouds
1:36 AM 48.2 °F - 44.6 °F 87% 29.90 in 10.0 mi WNW 10.4 mph - N/A   Partly Cloudy
1:56 AM 48.2 °F - 44.6 °F 87% 29.91 in 10.0 mi WNW 11.5 mph - N/A   Partly Cloudy
2:16 AM 48.2 °F - 44.6 °F 87% 29.90 in 10.0 mi West 11.5 mph - N/A   Clear
2:36 AM 48.2 °F - 44.6 °F 87% 29.90 in 10.0 mi West 11.5 mph - N/A   Clear
2:56 AM 48.2 °F - 44.6 °F 87% 29.89 in 10.0 mi WNW 10.4 mph - N/A   Clear
3:16 AM 48.2 °F - 44.6 °F 87% 29.89 in 10.0 mi NW 6.9 mph - N/A   Clear
3:36 AM 48.2 °F - 44.6 °F 87% 29.88 in 10.0 mi West 10.4 mph - N/A   Partly Cloudy
3:56 AM 48.2 °F - 44.6 °F 87% 29.88 in 10.0 mi WNW 8.1 mph - N/A   Scattered Clouds
4:16 AM 48.2 °F - 44.6 °F 87% 29.87 in 10.0 mi West 9.2 mph - N/A   Partly Cloudy
4:36 AM 48.2 °F - 44.6 °F 87% 29.86 in 10.0 mi WNW 9.2 mph - N/A   Clear
4:56 AM 48.2 °F - 44.6 °F 87% 29.86 in 10.0 mi West 6.9 mph - N/A   Clear
5:16 AM 48.2 °F - 44.6 °F 87% 29.85 in 10.0 mi West 8.1 mph - N/A   Partly Cloudy
5:36 AM 48.2 °F - 44.6 °F 87% 29.85 in 10.0 mi WNW 9.2 mph - N/A   Clear
5:56 AM 48.2 °F - 44.6 °F 87% 29.85 in 10.0 mi WNW 9.2 mph - N/A   Partly Cloudy
6:16 AM 48.2 °F - 44.6 °F 87% 29.84 in 10.0 mi WNW 8.1 mph - N/A   Scattered Clouds
6:36 AM 48.2 °F - 44.6 °F 87% 29.83 in 10.0 mi WNW 9.2 mph - N/A   Partly Cloudy
6:56 AM 46.4 °F 43.5 °F 44.6 °F 93% 29.83 in 10.0 mi NW 5.8 mph - N/A   Mostly Cloudy
7:16 AM 46.4 °F 42.9 °F 44.6 °F 93% 29.82 in 10.0 mi West 6.9 mph - N/A   Mostly Cloudy
7:36 AM 46.4 °F 42.9 °F 44.6 °F 93% 29.81 in 10.0 mi West 6.9 mph - N/A   Partly Cloudy
7:56 AM 46.4 °F 43.5 °F 44.6 °F 93% 29.80 in 10.0 mi WNW 5.8 mph - N/A   Scattered Clouds
8:16 AM 46.4 °F 43.5 °F 44.6 °F 93% 29.80 in 10.0 mi NW 5.8 mph - N/A   Scattered Clouds
8:36 AM 46.4 °F - 44.6 °F 93% 29.80 in 10.0 mi Calm Calm - N/A   Scattered Clouds
8:56 AM 46.4 °F 42.4 °F 44.6 °F 93% 29.80 in 10.0 mi WNW 8.1 mph - N/A   Scattered Clouds
9:16 AM 46.4 °F 43.5 °F 44.6 °F 93% 29.79 in 10.0 mi NW 5.8 mph - N/A   Scattered Clouds
9:36 AM 46.4 °F 42.9 °F 44.6 °F 93% 29.79 in 10.0 mi West 6.9 mph - N/A   Scattered Clouds
9:56 AM 48.2 °F - 46.4 °F 93% 29.78 in 10.0 mi West 8.1 mph - N/A   Scattered Clouds
10:16 AM 48.2 °F - 44.6 °F 87% 29.78 in 10.0 mi WNW 9.2 mph - N/A   Scattered Clouds
10:36 AM 50.0 °F - 46.4 °F 87% 29.77 in 10.0 mi NW 11.5 mph - N/A   Scattered Clouds
10:56 AM 50.0 °F - 44.6 °F 82% 29.77 in 10.0 mi WNW 11.5 mph - N/A   Mostly Cloudy
11:16 AM 50.0 °F - 44.6 °F 82% 29.76 in 10.0 mi WNW 10.4 mph - N/A   Mostly Cloudy
11:36 AM 51.8 °F - 44.6 °F 76% 29.76 in 10.0 mi NW 10.4 mph - N/A   Mostly Cloudy
11:56 AM 51.8 °F - 44.6 °F 76% 29.76 in 10.0 mi WNW 12.7 mph - N/A   Mostly Cloudy
12:16 PM 51.8 °F - 44.6 °F 76% 29.75 in 10.0 mi WNW 10.4 mph - N/A   Mostly Cloudy
12:36 PM 51.8 °F - 44.6 °F 76% 29.75 in 10.0 mi WNW 13.8 mph - N/A   Mostly Cloudy
12:56 PM 51.8 °F - 44.6 °F 76% 29.75 in 10.0 mi NNW 15.0 mph - N/A   Mostly Cloudy
1:16 PM 51.8 °F - 44.6 °F 76% 29.75 in 10.0 mi NW 12.7 mph - N/A   Mostly Cloudy
1:36 PM 51.8 °F - 46.4 °F 82% 29.75 in 10.0 mi NW 15.0 mph - N/A   Mostly Cloudy
1:56 PM 51.8 °F - 46.4 °F 82% 29.75 in 10.0 mi WNW 11.5 mph - N/A   Mostly Cloudy
2:16 PM 50.0 °F - 44.6 °F 82% 29.75 in 9.0 mi NNW 18.4 mph - N/A   Mostly Cloudy
2:36 PM 51.8 °F - 44.6 °F 76% 29.74 in 10.0 mi NNW 16.1 mph - N/A   Mostly Cloudy
2:56 PM 51.8 °F - 44.6 °F 76% 29.75 in 10.0 mi North 17.3 mph - N/A   Mostly Cloudy
3:16 PM 51.8 °F - 44.6 °F 76% 29.75 in 10.0 mi NNW 17.3 mph - N/A   Mostly Cloudy
3:36 PM 51.8 °F - 44.6 °F 76% 29.74 in 10.0 mi NW 13.8 mph - N/A   Mostly Cloudy
3:56 PM 53.6 °F - 44.6 °F 72% 29.74 in 10.0 mi WNW 13.8 mph - N/A   Mostly Cloudy
4:16 PM 51.8 °F - 44.6 °F 76% 29.73 in 10.0 mi NW 15.0 mph - N/A   Mostly Cloudy
4:36 PM 51.8 °F - 44.6 °F 76% 29.73 in 10.0 mi NNW 13.8 mph - N/A   Mostly Cloudy
4:56 PM 51.8 °F - 46.4 °F 82% 29.73 in 10.0 mi NW 15.0 mph - N/A   Mostly Cloudy
5:16 PM 51.8 °F - 44.6 °F 76% 29.73 in 10.0 mi NNW 18.4 mph - N/A   Mostly Cloudy
5:36 PM 51.8 °F - 44.6 °F 76% 29.74 in 10.0 mi NW 15.0 mph - N/A   Mostly Cloudy
5:56 PM 53.6 °F - 42.8 °F 67% 29.73 in 10.0 mi NW 19.6 mph 24.2 mph N/A   Mostly Cloudy
6:16 PM 53.6 °F - 42.8 °F 67% 29.74 in 10.0 mi NNW 24.2 mph - N/A   Mostly Cloudy
6:36 PM 51.8 °F - 42.8 °F 71% 29.75 in 10.0 mi NNW 19.6 mph 23.0 mph N/A   Mostly Cloudy
6:56 PM 51.8 °F - 42.8 °F 71% 29.75 in 10.0 mi NNW 17.3 mph - N/A   Mostly Cloudy
7:16 PM 51.8 °F - 41.0 °F 67% 29.74 in 10.0 mi NNW 21.9 mph 25.3 mph N/A   Partly Cloudy
7:36 PM 51.8 °F - 39.2 °F 62% 29.75 in 10.0 mi NNW 18.4 mph 23.0 mph N/A   Clear
7:56 PM 51.8 °F - 39.2 °F 62% 29.75 in 10.0 mi NNW 18.4 mph 23.0 mph N/A   Partly Cloudy
8:16 PM 51.8 °F - 39.2 °F 62% 29.76 in 10.0 mi NNW 19.6 mph - N/A   Partly Cloudy
8:36 PM 51.8 °F - 41.0 °F 67% 29.76 in 10.0 mi NW 18.4 mph 24.2 mph N/A   Scattered Clouds
8:56 PM 51.8 °F - 39.2 °F 62% 29.77 in 10.0 mi NW 15.0 mph 23.0 mph N/A   Scattered Clouds
9:16 PM 50.0 °F - 39.2 °F 66% 29.78 in 10.0 mi NNW 19.6 mph 27.6 mph N/A   Mostly Cloudy
9:36 PM 50.0 °F - 39.2 °F 66% 29.78 in 10.0 mi NNW 19.6 mph 25.3 mph N/A   Mostly Cloudy
9:56 PM 50.0 °F - 41.0 °F 71% 29.79 in 10.0 mi NW 18.4 mph 25.3 mph N/A   Overcast
10:16 PM 50.0 °F - 39.2 °F 66% 29.80 in 10.0 mi NNW 17.3 mph - N/A   Mostly Cloudy
10:36 PM 50.0 °F - 39.2 °F 66% 29.81 in 10.0 mi NNW 16.1 mph - N/A   Mostly Cloudy
10:56 PM 50.0 °F - 41.0 °F 71% 29.82 in 10.0 mi NNW 15.0 mph 18.4 mph N/A   Mostly Cloudy
11:16 PM 50.0 °F - 41.0 °F 71% 29.83 in 10.0 mi NNW 17.3 mph 24.2 mph N/A   Overcast
11:36 PM 50.0 °F - 41.0 °F 71% 29.83 in 10.0 mi NNW 17.3 mph - N/A   Overcast
11:56 PM 50.0 °F - 41.0 °F 71% 29.83 in 10.0 mi NNW 18.4 mph 27.6 mph N/A   Overcast